TimeCDT,TemperatureF,Dew PointF,Humidity,Sea Level PressureIn,VisibilityMPH,Wind Direction,Wind SpeedMPH,Gust SpeedMPH,PrecipitationIn,Events,Conditions,WindDirDegrees,DateUTC
12:15 AM,36.5,23.5,59,30.01,10.0,West,9.2,-,N/A,,Clear,280,2011-10-17 05:15:00
12:35 AM,37.4,23.9,58,30.00,10.0,WNW,8.1,-,N/A,,Clear,290,2011-10-17 05:35:00
12:55 AM,39.7,24.3,54,30.00,10.0,WNW,9.2,-,N/A,,Clear,300,2011-10-17 05:55:00
1:15 AM,38.3,23.9,56,30.01,10.0,West,6.9,-,N/A,,Clear,260,2011-10-17 06:15:00
1:35 AM,34.2,23.2,64,30.00,10.0,West,8.1,-,N/A,,Clear,280,2011-10-17 06:35:00
1:55 AM,33.6,23.2,66,30.01,10.0,West,5.8,-,N/A,,Clear,280,2011-10-17 06:55:00
2:15 AM,34.2,23.4,65,30.01,10.0,West,8.1,-,N/A,,Clear,260,2011-10-17 07:15:00
2:55 AM,34.2,23.5,65,30.01,10.0,West,9.2,-,N/A,,Clear,260,2011-10-17 07:55:00
3:15 AM,33.4,23.4,67,30.00,10.0,West,9.2,-,N/A,,Clear,260,2011-10-17 08:15:00
3:35 AM,33.6,23.5,67,30.00,10.0,West,10.4,-,N/A,,Clear,270,2011-10-17 08:35:00
3:55 AM,34.3,23.7,65,30.00,10.0,West,9.2,-,N/A,,Clear,260,2011-10-17 08:55:00
4:15 AM,33.8,23.7,67,30.00,10.0,WSW,10.4,-,N/A,,Clear,250,2011-10-17 09:15:00
4:35 AM,34.0,23.9,67,30.00,10.0,WSW,9.2,-,N/A,,Clear,250,2011-10-17 09:35:00
5:15 AM,34.2,23.9,66,30.00,10.0,West,10.4,-,N/A,,Clear,270,2011-10-17 10:15:00
5:35 AM,34.9,24.4,66,29.99,10.0,West,8.1,-,N/A,,Clear,280,2011-10-17 10:35:00
5:55 AM,36.3,25.2,64,29.99,10.0,West,9.2,-,N/A,,Clear,280,2011-10-17 10:55:00
6:15 AM,36.3,25.2,64,29.99,10.0,West,6.9,-,N/A,,Clear,270,2011-10-17 11:15:00
6:35 AM,36.5,25.3,64,29.98,10.0,West,5.8,-,N/A,,Scattered Clouds,260,2011-10-17 11:35:00
6:55 AM,37.0,25.2,62,29.98,10.0,West,5.8,-,N/A,,Scattered Clouds,260,2011-10-17 11:55:00
7:15 AM,37.6,25.5,62,29.99,10.0,West,6.9,-,N/A,,Mostly Cloudy,260,2011-10-17 12:15:00
7:35 AM,38.1,25.9,61,30.00,10.0,West,6.9,-,N/A,,Overcast,270,2011-10-17 12:35:00
7:55 AM,38.5,26.2,61,30.00,10.0,West,6.9,-,N/A,,Overcast,270,2011-10-17 12:55:00
8:15 AM,38.5,26.6,62,30.00,10.0,West,6.9,-,N/A,,Overcast,260,2011-10-17 13:15:00
8:35 AM,39.0,26.4,61,30.00,10.0,West,6.9,-,N/A,,Overcast,260,2011-10-17 13:35:00
8:55 AM,39.6,26.6,60,30.00,10.0,West,8.1,-,N/A,,Overcast,260,2011-10-17 13:55:00
9:15 AM,40.6,27.1,59,30.01,10.0,West,8.1,-,N/A,,Overcast,270,2011-10-17 14:15:00
9:35 AM,41.9,27.7,57,30.01,10.0,West,8.1,-,N/A,,Mostly Cloudy,260,2011-10-17 14:35:00
9:55 AM,42.8,28.2,56,30.01,10.0,West,6.9,-,N/A,,Scattered Clouds,270,2011-10-17 14:55:00
10:15 AM,44.2,28.0,53,30.01,10.0,West,8.1,-,N/A,,Scattered Clouds,270,2011-10-17 15:15:00
10:35 AM,45.1,28.2,52,30.02,10.0,West,6.9,-,N/A,,Scattered Clouds,270,2011-10-17 15:35:00
10:55 AM,46.0,28.0,50,30.02,10.0,West,6.9,-,N/A,,Clear,260,2011-10-17 15:55:00
11:15 AM,46.8,28.0,48,30.02,10.0,West,6.9,-,N/A,,Mostly Cloudy,260,2011-10-17 16:15:00
11:35 AM,48.4,27.7,45,30.02,10.0,West,5.8,-,N/A,,Scattered Clouds,260,2011-10-17 16:35:00
11:55 AM,49.6,27.3,42,30.02,10.0,WSW,6.9,-,N/A,,Clear,250,2011-10-17 16:55:00
12:15 PM,51.3,25.7,37,30.01,10.0,West,8.1,-,N/A,,Clear,260,2011-10-17 17:15:00
12:35 PM,53.1,22.6,31,30.01,10.0,WNW,15.0,-,N/A,,Clear,290,2011-10-17 17:35:00
12:55 PM,54.0,21.7,29,30.01,10.0,WNW,13.8,21.9,N/A,,Clear,290,2011-10-17 17:55:00
1:15 PM,54.3,20.8,27,30.00,10.0,WNW,13.8,20.7,N/A,,Clear,300,2011-10-17 18:15:00
1:35 PM,54.7,19.9,26,29.99,10.0,West,15.0,19.6,N/A,,Clear,280,2011-10-17 18:35:00
1:55 PM,55.6,19.6,25,29.98,10.0,NW,17.3,-,N/A,,Clear,310,2011-10-17 18:55:00
2:15 PM,56.5,19.2,23,29.97,10.0,WNW,16.1,19.6,N/A,,Clear,300,2011-10-17 19:15:00
2:35 PM,57.4,19.4,23,29.97,10.0,WNW,17.3,23.0,N/A,,Clear,290,2011-10-17 19:35:00
2:55 PM,57.2,17.1,21,29.96,10.0,NW,20.7,26.5,N/A,,Clear,310,2011-10-17 19:55:00
3:15 PM,56.5,13.5,18,29.96,10.0,WNW,18.4,28.8,N/A,,Clear,300,2011-10-17 20:15:00
3:35 PM,56.5,14.5,19,29.95,10.0,WNW,15.0,24.2,N/A,,Clear,300,2011-10-17 20:35:00
3:55 PM,57.2,12.4,17,29.95,10.0,NW,20.7,29.9,N/A,,Clear,320,2011-10-17 20:55:00
4:35 PM,56.3,14.7,19,29.95,10.0,NW,17.3,29.9,N/A,,Clear,320,2011-10-17 21:35:00
4:55 PM,55.6,17.6,23,29.95,10.0,NW,16.1,23.0,N/A,,Clear,310,2011-10-17 21:55:00
5:15 PM,54.7,19.2,25,29.95,10.0,NW,17.3,21.9,N/A,,Clear,310,2011-10-17 22:15:00
5:35 PM,54.9,17.4,23,29.96,10.0,NW,13.8,23.0,N/A,,Clear,320,2011-10-17 22:35:00
5:55 PM,54.1,17.6,24,29.96,10.0,NW,11.5,18.4,N/A,,Clear,310,2011-10-17 22:55:00
6:15 PM,53.1,18.9,26,29.96,10.0,NW,11.5,16.1,N/A,,Clear,310,2011-10-17 23:15:00
6:35 PM,52.7,19.8,27,29.96,10.0,NW,15.0,19.6,N/A,,Clear,320,2011-10-17 23:35:00
6:55 PM,52.2,20.1,28,29.97,10.0,NW,12.7,18.4,N/A,,Clear,310,2011-10-17 23:55:00
7:15 PM,51.6,20.3,29,29.97,10.0,WNW,13.8,-,N/A,,Scattered Clouds,300,2011-10-18 00:15:00
7:35 PM,51.3,20.7,30,29.98,10.0,WNW,9.2,-,N/A,,Mostly Cloudy,290,2011-10-18 00:35:00
7:55 PM,50.5,21.4,32,29.98,10.0,West,9.2,-,N/A,,Scattered Clouds,280,2011-10-18 00:55:00
8:15 PM,49.8,22.1,34,29.98,10.0,West,9.2,-,N/A,,Scattered Clouds,280,2011-10-18 01:15:00
8:35 PM,49.3,22.8,35,29.98,10.0,West,9.2,-,N/A,,Clear,280,2011-10-18 01:35:00
8:55 PM,48.9,23.4,37,29.98,10.0,West,9.2,-,N/A,,Clear,280,2011-10-18 01:55:00
9:15 PM,48.4,23.4,37,29.98,10.0,West,9.2,-,N/A,,Clear,280,2011-10-18 02:15:00
9:35 PM,47.8,23.5,39,29.98,10.0,West,8.1,-,N/A,,Clear,270,2011-10-18 02:35:00
9:55 PM,46.9,24.1,41,29.98,10.0,West,9.2,-,N/A,,Clear,270,2011-10-18 02:55:00
10:15 PM,46.4,24.3,42,29.98,10.0,West,9.2,-,N/A,,Clear,280,2011-10-18 03:15:00
10:35 PM,46.4,23.9,41,29.99,10.0,West,10.4,-,N/A,,Clear,280,2011-10-18 03:35:00
10:55 PM,46.0,24.1,42,29.99,10.0,West,8.1,-,N/A,,Clear,270,2011-10-18 03:55:00
11:15 PM,45.1,24.4,44,29.99,10.0,West,9.2,-,N/A,,Clear,270,2011-10-18 04:15:00
11:35 PM,45.0,24.4,45,29.99,10.0,West,9.2,-,N/A,,Clear,280,2011-10-18 04:35:00
11:55 PM,45.1,24.4,44,29.98,10.0,West,9.2,-,N/A,,Clear,280,2011-10-18 04:55:00